This is the latest recevied weather packets stored in our database for station/object N6GPM. If no packets are shown the sender has not sent any weather packets the latest 10 day(s).
| Time | Temp. | Humidity | Pressure | Rain* | Wind** | Luminosity | Snow |
|---|---|---|---|---|---|---|---|
| 1777928557 | 16.67° C | 56% | 1018.6 hPa | 0 mm | - | 439 W/m² | - |
| 1777928254 | 16.67° C | 56% | 1018.5 hPa | 0 mm | - | 266 W/m² | - |
| 1777927952 | 16.11° C | 57% | 1018.7 hPa | 0 mm | - | 193 W/m² | - |
| 1777927650 | 16.11° C | 57% | 1018.7 hPa | 0 mm | - | 188 W/m² | - |
| 1777927348 | 16.11° C | 56% | 1018.8 hPa | 0 mm | - | 214 W/m² | - |
| 1777927047 | 16.11° C | 57% | 1018.5 hPa | 0 mm | - | 212 W/m² | - |
| 1777926743 | 16.11° C | 56% | 1018.8 hPa | 0 mm | - | 209 W/m² | - |
| 1777926438 | 16.11° C | 56% | 1018.8 hPa | 0 mm | - | 245 W/m² | - |
| 1777926135 | 16.11° C | 57% | 1018.8 hPa | 0 mm | - | 241 W/m² | - |
| 1777925832 | 16.67° C | 54% | 1018.7 hPa | 0 mm | - | 287 W/m² | - |
| 1777925530 | 16.11° C | 56% | 1018.6 hPa | 0 mm | - | 454 W/m² | - |
| 1777925227 | 16.11° C | 57% | 1018.6 hPa | 0 mm | - | 338 W/m² | - |
| 1777924923 | 16.11° C | 57% | 1019 hPa | 0 mm | - | 354 W/m² | - |
| 1777924620 | 15.56° C | 57% | 1018.8 hPa | 0 mm | - | 358 W/m² | - |
| 1777924315 | 15.56° C | 58% | 1019.2 hPa | 0 mm | - | 276 W/m² | - |
| 1777924013 | 15.56° C | 57% | 1019.2 hPa | 0 mm | - | 281 W/m² | - |
| 1777923708 | 16.11° C | 58% | 1018.8 hPa | 0 mm | - | 294 W/m² | - |
| 1777923405 | 16.11° C | 59% | 1019.2 hPa | 0 mm | - | 296 W/m² | - |
| 1777923103 | 16.11° C | 59% | 1019 hPa | 0 mm | - | 307 W/m² | - |
| 1777922801 | 15.56° C | 60% | 1019.2 hPa | 0 mm | - | 328 W/m² | - |
| 1777922499 | 15.56° C | 59% | 1019 hPa | 0 mm | - | 326 W/m² | - |
| 1777922197 | 15.56° C | 60% | 1019.2 hPa | 0 mm | - | 361 W/m² | - |
| 1777921893 | 15.56° C | 60% | 1019.4 hPa | 0 mm | - | 299 W/m² | - |
| 1777921589 | 15.56° C | 61% | 1019.4 hPa | 0 mm | - | 242 W/m² | - |
| 1777921286 | 15.56° C | 61% | 1019 hPa | 0 mm | - | 170 W/m² | - |
* Rain latest hour (hover to see other rain measurements)
** Current wind speed in m/s (hover to see current wind gust speed)